Tracking 25703 objects as of 2-Jul-2022
HD Live streaming from Space Station
objects crossing your sky now

STARLINK-3144

Track STARLINK-3144 now!
10-day predictions
STARLINK-3144 is classified as:


NORAD ID: 49412
Int'l Code: 2021-104E
Perigee: 544.6 km
Apogee: 549.3 km
Inclination: 53.2 °
Period: 95.4 minutes
Semi major axis: 6917 km
RCS: Unknown
Launch date: November 13, 2021
Source: United States (US)
Launch site: AIR FORCE EASTERN TEST RANGE (AFETR)
aabbcc
Your satellite tracking list
Your tracking list is empty




NASA's NSSDC Master Catalog

Two Line Element Set (TLE):
1 49412U 21104E   22182.86359584  .00000593  00000-0  55396-4 0  9990
2 49412  53.2160 155.2668 0003372  43.9991 316.1270 15.08827587 35315
Source of the keplerian elements: AFSPC